Regional Weather Roundup
Issued by NWS Mt. Holly, NJ

Home | Current Version | Previous Version | Text Only | Print | Product List | Glossary On
Versions: 1 2 3 4 5 6 7 8 9 10 11 12 13 14 15 16 17 18 19 20 21 22 23 24 25 26 27 28 29 30 31 32 33 34 35 36 37 38 39 40 41 42 43 44 45 46 47 48 49 50
000
ASUS41 KPHI 301710
RWRPHI

REGIONAL WEATHER ROUNDUP
NATIONAL WEATHER SERVICE MOUNT HOLLY NJ
1200 PM EST FRI JAN 30 2015

NOTE:  "FAIR" INDICATES FEW OR NO CLOUDS BELOW 12,000 FEET WITH NO
SIGNIFICANT WEATHER AND/OR OBSTRUCTIONS TO VISIBILITY.

 * = STATION DOES NOT REPORT PRECIPITATION (E.G. RAIN, SNOW, ETC.)
        OR FOG.

NJZ015>026-301800-
SOUTHERN NEW JERSEY

CITY           SKY/WX    TMP DP  RH WIND       PRES   REMARKS
POMONA         CLOUDY    37  26  64 NW16G26   29.90F WCI  28
RIO GRANDE*    CLOUDY    39  25  56 NW15G23   29.91F WCI  31
MILLVILLE      CLOUDY    40  23  50 NW15G30   29.92F WCI  32
WRIGHTSTOWN    CLOUDY    37  26  63 NW15G21   29.87F WCI  28
MOUNT HOLLY    CLOUDY    37  25  61 NW15G22   29.91F WCI  28
TRENTON        CLOUDY    37  24  59 NW18      29.88F WCI  27

$$
NJZ001>014-301800-
NORTHERN NEW JERSEY

CITY           SKY/WX    TMP DP  RH WIND       PRES   REMARKS
SUSSEX         FLURRIES  33  23  66 VRB7G18   29.87R WCI  27
ANDOVER*         N/A     33  24  69 VRB7      29.87S WCI  27
MORRISTOWN     CLOUDY    37  25  60 N8G14     29.87F WCI  31
NEWARK         FLURRIES  35  26  69 NW18G25   29.86F WCI  24
TETERBORO      CLOUDY    36  24  62 NW12G22   29.85F WCI  28
CALDWELL       CLOUDY    36  23  59 NW14G22   29.86F WCI  27
SOMERVILLE     CLOUDY    37  25  61 NW14G23   29.86F WCI  28
ALLAIRE*       CLOUDY    36  23  60 NW23G33   29.86F WCI  24
TOMS RIVER*    PTSUNNY   37  25  60 NW21G26   29.88F WCI  27

$$
PAZ043-044-047-054-055-060>062-066>071-301800-
EASTERN PENNSYLVANIA

CITY           SKY/WX    TMP DP  RH WIND       PRES   REMARKS
PHILADELPHIA   PTSUNNY   39  20  46 NW24G32   29.93F WCI  28
NORTH PHILA    CLOUDY    39  21  48 NW15G26   29.93F WCI  31
BLUE BELL      MOSUNNY   37  23  56 NW14G21   29.91F WCI  29
DOYLESTOWN     CLOUDY    34  22  61 NW17G25   29.89F WCI  23
QUAKERTOWN*    CLOUDY    34  21  60 NW13G21   29.91F WCI  25
POTTSTOWN      CLOUDY    35  21  56 N15G21    29.94S WCI  25
LANCASTER      PTSUNNY   36  22  56 NW21G30   29.96S WCI  25
COATESVILLE    PTSUNNY   37  25  60 NW20G29   29.92F WCI  27
READING        MOSUNNY   36  21  54 NW23G30   29.94S WCI  24
ALLENTOWN      CLOUDY    35  21  56 NW14G28   29.91F WCI  26
MOUNT POCONO   LGT SNOW  27  19  72 NW21G32   29.80S WCI  13
HAZLETON       LGT SNOW  30  25  80 W18       29.90F WCI  18
WILKES BARRE   LGT SNOW  31  21  66 NW16G25   29.91S WCI  20

$$
DEZALL-MDZ008-012-015-019-020-301800-
DELAWARE AND EASTERN MARYLAND

CITY           SKY/WX    TMP DP  RH WIND       PRES   REMARKS
WILMINGTON     PTSUNNY   40  22  48 NW21G29   29.95F WCI  30
DOVER          PTSUNNY   42  24  50 NW23G31   29.93F
GEORGETOWN     PTSUNNY   43  21  41 NW12G23   29.94F
EASTON         MOSUNNY   45  25  45 NW22G32   30.00F
PATUXENT       PTSUNNY   38  27  64 NW21G26   30.01S WCI  28
OCEAN CITY     PTSUNNY   43  23  45 N21G31    29.94F
WALLOPS ISLAND PTSUNNY   42  22  44 N17G26    29.96F
CAMBRIDGE      MOSUNNY   43  23  45 NW15G24   29.98F
SALISBURY      MOSUNNY   45  20  36 NW17G33   29.95F

$$
PAZ001-021-NYZ056-072-MDZ011-DCZ001-301800-
OTHER NEARBY LOCATIONS

CITY           SKY/WX    TMP DP  RH WIND       PRES   REMARKS
HARRISBURG     CLOUDY    34  23  64 NW18G29   29.99R WCI  23
STATE COLLEGE  LGT SNOW  27  18  69 NW17G24   30.03S WCI  14
WILLIAMSPORT   CLOUDY    32  23  69 W13       29.98F WCI  22
BINGHAMTON     LGT SNOW  25  19  78 NW12G22   29.88S WCI  14
NEW YORK CITY  CLOUDY    36  23  59 NW16G23   29.86F WCI  26
BALTIMORE      NOT AVBL
WASHINGTON DC  PTSUNNY   40  21  46 NW16G31   30.06S WCI  31

$$


USA.gov is the U.S. government's official web portal to all federal, state and local government web resources and services.